Location: Blandy
(48.5672°N, 2.7818°E)
Time: 07:45:36
(UTC+00:00)

Daily predictions for brighter satellites

Satellite Brightness Start Highest point End
(mag) Time Altitude Azimuth Time Altitude Azimuth Time Altitude Azimuth
ATLAS 3B R/B 3.2 19:53:28 10° NW 20:01:19 71° NE 20:09:06 10° SE
BREEZE-M DEB (TANK) 4.1 19:59:06 10° SSW 20:02:18 34° SE 20:09:04 10° E
Cosmos 1980 3.9 20:00:35 10° SSW 20:06:14 82° WNW 20:11:56 10° NNE
Aureole 3 Rocket 4.0 20:03:06 10° NNE 20:06:17 28° ENE 20:10:15 10° SE
Cosmos 923 Rocket 4.3 20:02:07 10° S 20:07:12 48° ESE 20:12:20 10° NNE
USA 306 4.1 20:04:02 10° WNW 20:07:27 36° N 20:11:04 10° ENE
SPOT 5 3.0 20:03:30 10° SSE 20:08:03 53° ENE 20:12:25 10° N
Cosmos 1464 Rocket 4.1 20:05:59 10° N 20:12:22 86° E 20:18:37 10° S
Meteor 2-2 Rocket 4.4 20:06:27 10° S 20:12:27 72° E 20:18:27 10° NNE
Okean O Rocket 2.7 20:12:32 10° S 20:16:47 46° W 20:21:04 10° NNW
Terra 2.6 20:14:19 10° SE 20:18:39 38° ENE 20:23:01 10° N
USA 234 4.4 20:12:58 10° ENE 20:19:04 44° N 20:25:10 10° WNW
Cosmos 1656 Rocket 4.2 20:16:55 10° NNW 20:22:11 47° NE 20:27:23 10° SE
Cosmos 1371 Rocket 4.4 20:17:36 10° NNW 20:22:53 56° ENE 20:28:03 10° SE
ERS-1 Rocket 3.3 20:19:17 10° SE 20:24:07 52° ENE 20:29:00 10° N
MOS 1 4.4 20:19:09 10° SSE 20:24:50 85° WSW 20:30:33 10° NNW
ATLAS 2AS CENTAUR R/B 3.1 20:17:57 10° SW 20:25:21 79° NW 20:32:29 10° NE
SPOT 3 Rocket 4.2 20:24:08 10° SE 20:28:54 40° ENE 20:33:41 10° N
USA 59 Rocket 2.5 20:29:11 10° NNE 20:29:42 10° NNE 20:30:13 10° NNE
Cosmos 1782 3.3 20:25:57 10° SSW 20:29:42 60° WNW 20:33:30 10° N
IRS-1A Rocket 4.3 20:25:57 10° SSE 20:31:36 77° ENE 20:37:11 10° NNW
Meteor 1-26 Rocket 4.5 20:27:17 10° S 20:33:15 64° E 20:39:13 10° NNE
USA 281 3.7 20:27:35 10° SE 20:33:52 50° NE 20:40:11 10° NNW
Cosmos 1943 Rocket 3.1 20:29:00 10° NW 20:34:22 45° WSW 20:39:40 10° S
Cosmos 1420 Rocket 4.1 20:30:06 10° NNW 20:35:27 81° ENE 20:40:30 11° SSE
Cosmos 1743 3.2 20:35:15 10° N 20:38:42 40° ENE 20:41:25 15° SE
Cosmos 2278 Rocket 4.1 20:34:21 10° NW 20:38:56 26° WSW 20:43:29 10° SSW
ISS -2.8 20:36:13 10° WNW 20:39:28 48° N 20:42:43 10° E
NOSS 3-1 (A) 4.2 20:32:37 10° NW 20:39:54 75° SW 20:48:11 12° SSE
Cosmos 972 4.4 20:35:14 10° SSW 20:40:07 88° WNW 20:45:07 10° NNE
USA 245 2.0 20:42:40 19° SSE 20:44:06 58° ENE 20:46:18 10° N
SL-24 R/B - RUBIN 2 4.5 20:39:44 10° SSW 20:45:48 68° ESE 20:52:26 10° NE
Cosmos 2297 3.8 20:40:47 10° NNW 20:46:33 72° ENE 20:51:24 15° SE
Cosmos 1634 Rocket 4.2 20:40:54 10° N 20:47:09 60° ENE 20:52:38 13° SSE
Cosmos 2112 Rocket 4.0 20:44:17 10° S 20:49:33 69° ESE 20:54:51 10° NNE
USA 290 2.9 20:47:47 10° NNW 20:50:56 50° WSW 20:53:34 13° S
Okean-O 3.9 20:47:32 10° SSW 20:51:38 38° W 20:55:47 10° NNW
Cosmos 1766 Rocket 3.6 20:47:25 10° N 20:51:52 69° E 20:55:32 15° SSE
USA 229 DEB 4.2 20:47:30 10° NW 20:54:48 69° NE 21:01:46 14° SE
USA 229 4.2 20:47:35 10° NW 20:54:53 68° NE 21:01:53 14° SE
Cosmos 2034 Rocket 4.3 20:49:57 10° NNW 20:56:07 68° W 21:02:18 10° S
Cosmos 1726 3.1 20:54:32 10° NNE 20:57:12 24° ENE 20:58:35 18° ESE
Spot 2 Rocket 3.5 20:54:06 14° SSE 20:58:25 78° ENE 21:03:29 10° NNW
Cosmos 1680 Rocket 3.6 20:54:30 10° SSW 20:59:48 86° WNW 21:05:07 10° NNE
Meteor 2-6 Rocket 4.3 20:58:31 10° S 21:03:58 58° E 21:09:21 10° NNE
USA 32 4.0 21:01:12 10° S 21:06:24 78° E 21:11:39 10° N
Tsikada Rocket 4.0 21:02:39 10° S 21:08:50 88° W 21:15:08 10° N
Sich 1 4.4 21:10:01 10° NNE 21:13:40 25° ENE 21:15:51 17° ESE
Helios 1B 4.5 21:09:37 10° NNE 21:13:57 78° ESE 21:17:56 12° S
MetOp-A 4.1 21:11:24 21° SE 21:14:11 52° ENE 21:18:48 10° N
USA 276 1.1 21:12:29 10° WNW 21:14:42 82° SSW 21:15:14 46° ESE
SL-16 R/B 2.3 21:09:33 10° SSW 21:15:13 81° WNW 21:20:57 10° NNE
Cosmos 2263 4.3 21:10:22 10° NNW 21:16:03 70° ENE 21:20:00 21° SE
MOS 1 Rocket 3.5 21:13:56 18° SSE 21:17:41 86° ENE 21:22:58 10° NNW
Cosmos 2056 Rocket 4.1 21:14:01 10° NNW 21:19:19 55° WSW 21:23:28 16° S
Lacrosse 5 2.8 21:15:22 10° WNW 21:20:02 37° SW 21:23:08 19° S
Cosmos 1536 3.4 21:16:46 10° N 21:20:28 41° ENE 21:22:15 25° SE
Ariane Rocket 3.2 21:16:49 16° S 21:20:52 71° WSW 21:25:58 10° NNW
Lacrosse 5 rocket 2.0 21:16:59 10° WSW 21:21:14 59° NNW 21:25:24 10° NE
Cosmos 1452 Rocket 3.9 21:18:20 10° NNW 21:23:31 55° ENE 21:26:45 22° SE
Cosmos 1408 Rocket 4.0 21:19:32 10° N 21:23:52 48° ENE 21:26:12 25° SE
Cosmos 44 3.8 21:19:17 10° NW 21:23:57 49° WSW 21:26:45 21° S
Spot 1 3.9 21:20:59 10° NNE 21:25:00 62° ESE 21:27:36 21° S
Okean 1 4.2 21:25:59 26° SE 21:27:11 31° E 21:30:38 10° NNE
Cosmos 2221 3.3 21:23:28 10° SSW 21:27:40 50° WNW 21:31:54 10° N
Cosmos 1340 4.2 21:25:15 10° NNE 21:27:47 19° ENE 21:28:49 17° E
Cosmos 2369 Rocket 2.2 21:23:07 10° NNW 21:28:44 75° WSW 21:32:23 22° SSE
Cosmos 2084 3.6 21:28:38 10° NW 21:32:16 48° SW 21:33:53 28° S
FALCON 9 R/B 4.3 21:28:56 10° WSW 21:35:13 36° S 21:53:50 10° ESE
USA 306 3.6 21:38:04 10° WNW 21:41:46 44° NNE 21:45:08 12° E
Cosmos 921 Rocket 3.5 21:38:18 10° SSW 21:42:43 62° WNW 21:47:12 10° NNE
Okean 3 Rocket 3.9 21:41:11 10° NNW 21:45:32 61° W 21:48:06 23° SSW
GEOS 3 Rocket 3.8 21:41:28 10° NE 21:46:40 72° NW 21:51:45 10° SW
ATLAS 3B R/B 4.0 21:44:46 10° NW 21:51:41 36° WSW 21:57:03 16° S
Landsat 5 3.4 21:48:56 10° N 21:52:42 72° WNW 21:54:55 23° SSW
SL-8 R/B 3.9 21:49:41 10° SW 21:54:11 43° SSE 21:58:42 10° E
Cosmos 1500 Rocket 3.5 21:51:55 10° N 21:56:16 76° E 21:57:58 36° SSE
Terra 3.4 21:52:38 12° SSW 21:56:19 29° W 22:00:25 10° NW
Cosmos 1943 3.1 21:53:56 16° SSW 21:58:33 76° ESE 22:04:14 10° NNE
Cosmos 1733 3.2 21:55:54 10° N 21:59:23 56° ENE 22:00:07 45° SE
ALOS 2 4.5 21:58:50 15° E 22:00:52 20° ENE 22:04:06 10° NNE
USA 234 4.1 21:55:08 10° E 22:01:24 50° NNE 22:07:39 10° WNW
Cosmos 1048 Rocket 3.9 21:59:00 17° SSW 22:03:01 88° WNW 22:08:10 10° NNE
H-2A R/B 3.4 22:02:30 27° ESE 22:03:57 36° ENE 22:07:49 10° N
Cosmos 1842 Rocket 4.4 22:01:41 16° SSW 22:05:06 49° WNW 22:09:26 10° N
Cosmos 1805 Rocket 3.5 22:00:47 10° N 22:05:11 78° E 22:06:48 38° SSE
Cosmos 494 Rocket 4.4 22:01:13 10° SW 22:06:15 62° WNW 22:11:21 10° NNE
Meteor 1-10 Rocket 4.3 22:02:23 19° SSW 22:06:40 78° WNW 22:12:21 10° N
Lacrosse 4 Rocket 3.7 22:04:38 10° N 22:07:26 18° NE 22:10:16 10° E
Cosmos 1151 Rocket 3.4 22:08:37 38° SE 22:09:47 48° E 22:13:59 10° NNE
Meteor 2-9 Rocket 4.3 22:06:05 10° NNW 22:11:54 85° W 22:14:55 30° S
Cosmos 1302 Rocket 4.2 22:09:46 10° NNW 22:14:56 62° ENE 22:17:13 32° SE
Meteor 1-11 Rocket 4.0 22:09:35 10° NNW 22:15:08 63° W 22:18:13 27° S
ISS -4.0 22:12:57 10° WNW 22:16:17 80° SSW 22:16:32 72° SSE
Cosmos 1633 Rocket 4.2 22:12:47 10° N 22:16:46 32° ENE 22:18:08 26° ESE
Meteor 2-10 4.2 22:11:27 10° NNW 22:17:06 79° W 22:19:41 32° S
Meteor 1-19 Rocket 4.3 22:14:07 27° S 22:17:29 83° E 22:23:19 10° NNE
ARIANE 5 R/B 2.5 22:16:04 41° SSE 22:17:32 75° ENE 22:21:52 10° N
Cosmos 1340 Rocket 2.8 22:17:22 48° SSE 22:18:18 68° E 22:22:18 10° NNE
USA 281 4.0 22:14:24 20° SSW 22:18:27 40° WSW 22:24:38 10° NW
USA 59 Rocket 1.0 22:16:41 10° NNW 22:20:13 40° NE 22:22:59 20° ESE
Cosmos 1331 Rocket 4.3 22:15:51 10° NNW 22:21:01 59° WSW 22:23:13 33° S
NOSS 2-1 (E) 4.5 22:17:32 10° NNW 22:21:05 40° NE 22:23:49 21° ESE
MINOTAUR 4 R/B 3.5 22:19:31 10° NNE 22:22:21 72° ENE 22:22:21 72° ENE
Cosmos 1110 Rocket 4.4 22:17:44 10° NNW 22:22:55 53° WSW 22:25:12 31° SSW
BREEZE-M DEB (TANK) 4.4 22:18:53 10° W 22:22:58 89° NNW 22:41:54 10° E
IRIDIUM 103 4.4 22:19:18 10° N 22:24:31 66° E 22:26:30 37° SSE
H-2A R/B 4.3 22:23:43 10° ENE 22:25:32 12° E 22:25:53 12° E
CZ-2C R/B 3.6 22:21:15 10° NNE 22:25:50 78° ESE 22:27:22 41° S
Cosmos 1726 3.9 22:28:02 10° NW 22:30:16 18° W 22:31:07 16° WSW
NOSS 2-1 (D) 4.1 22:29:06 10° NNW 22:32:44 51° NE 22:34:55 27° ESE
Nadezhda 4 Rocket 4.0 22:30:39 27° SSW 22:34:14 79° W 22:40:31 10° N
Molniya-1 4.3 22:35:27 27° SSW 22:37:50 82° SE 22:48:55 10° NE
Cosmos 1805 2.9 22:35:57 10° N 22:39:41 90° WSW 22:40:09 67° S
IRIDIUM 106 4.3 22:37:34 10° N 22:42:50 88° W 22:44:46 40° S
Cosmos 1743 Rocket 4.3 22:42:23 10° NNW 22:46:33 43° W 22:47:56 32° SW
Sich 1 4.1 22:47:11 10° NNW 22:51:11 36° W 22:52:35 28° SW
Spot 2 4.3 22:50:57 45° SE 22:52:15 70° ENE 22:57:02 10° N
Cosmos 1975 2.7 22:52:40 10° NNW 22:56:37 76° W 22:57:09 63° SSW
Lacrosse 5 rocket 3.6 22:56:35 10° WNW 23:00:14 27° N 23:03:48 10° NE
Cosmos 1603 4.2 22:57:29 18° SW 23:01:41 60° WNW 23:07:21 10° NNE
Cosmos 1340 3.7 22:59:06 10° NNW 23:02:05 29° W 23:02:14 29° W
Cosmos 1626 2.0 23:04:41 63° NE 23:04:41 63° NE 23:07:34 10° NNE
USA 267 3.3 23:00:59 10° ENE 23:07:25 58° SE 23:10:42 30° SSW
Cosmos 1674 3.9 23:07:49 27° E 23:07:49 27° E 23:10:32 10° NNE
NOSS 2-1 (C) 3.4 23:04:09 10° NW 23:07:58 87° SW 23:09:08 51° SE
Cosmos 2369 Rocket 4.4 23:09:38 10° WNW 23:11:44 12° W 23:13:50 10° WSW
PSLV R/B 4.3 23:09:01 10° NNE 23:13:23 41° E 23:13:59 39° ESE
Cosmos 2026 Rocket 4.1 23:12:23 33° SSW 23:15:23 73° W 23:21:41 10° N
USA 306 2.8 23:11:49 10° WNW 23:15:15 57° WSW 23:15:15 57° WSW
Cosmos 1833 Rocket 3.7 23:17:10 28° ESE 23:18:06 30° ESE 23:22:53 10° NE
NOSS 3-3 (C) 4.1 23:26:07 41° SSE 23:27:11 46° ESE 23:33:09 10° NE
SL-24 R/B 4.3 23:26:13 10° NNE 23:30:38 65° ESE 23:31:32 52° SSE
Cosmos 220 Rocket 4.0 23:30:05 54° SW 23:31:00 76° WNW 23:35:20 10° NNE
Cosmos 1515 Rocket 3.5 23:31:37 60° SSE 23:32:13 70° E 23:36:32 10° NNE
Cosmos 1328 Rocket 4.0 23:33:11 43° WSW 23:34:11 54° WNW 23:38:27 10° N
GP-B 4.1 23:30:58 10° NNE 23:34:59 33° E 23:35:54 30° ESE
SL-8 R/B 3.5 23:31:37 10° W 23:36:23 85° S 23:41:12 10° E
ALOS 2 2.9 23:36:13 47° SW 23:36:52 52° W 23:41:10 10° NNW
Cosmos 1553 Rocket 3.9 23:31:19 10° NNW 23:37:25 78° W 23:39:39 41° S
H-2A R/B 3.9 23:38:30 24° WSW 23:38:59 24° W 23:42:26 10° NW
Cosmos 1470 Rocket 3.7 23:36:40 10° NNW 23:41:04 60° W 23:41:47 52° SW
Cosmos 1869 Rocket 4.3 23:37:44 10° N 23:41:55 44° ENE 23:42:58 37° ESE
USA 234 3.2 23:38:50 17° SE 23:44:08 87° SSW 23:50:45 10° NW
Lacrosse 4 Rocket 1.1 23:42:09 10° NW 23:46:13 78° WSW 23:46:29 73° SSW
Cosmos 1633 Rocket 4.3 23:50:37 10° NNW 23:54:24 28° W 23:55:08 27° WSW
